When you browse on this site, cookies collect data to enhance your experience and personalize the content and advertising you see.
Visit our Privacy Policy to learn more. By continuing to use the site, you agree to this use of cookies and data.
  • In Lithuania
  • List of Countries
  • For 7 days
  • Water Temperature
  • Weather Map
  • Weather Widgets
  • user-avatar
    Login

    Hourly Weather Neuquén

    Today, 28 March, Saturday

    Time Temperature Precipitation Wind Pressure Humidity
    00:00 +19°C° 0 mm 5 mps 730 mmHg 32%
    01:00 +19°C° 0 mm 5 mps 730 mmHg 35%
    02:00 +18°C° 0 mm 4 mps 730 mmHg 38%
    03:00 +17°C° 0 mm 4 mps 730 mmHg 40%
    04:00 +17°C° 0 mm 3 mps 730 mmHg 43%
    05:00 +18°C° 0 mm 3 mps 731 mmHg 42%
    06:00 +19°C° 0 mm 4 mps 731 mmHg 40%
    07:00 +19°C° 0 mm 4 mps 732 mmHg 39%
    08:00 +21°C° 0 mm 4 mps 732 mmHg 34%
    09:00 +23°C° 0 mm 4 mps 732 mmHg 28%
    10:00 +26°C° 0 mm 4 mps 732 mmHg 23%
    11:00 +27°C° 0 mm 4 mps 732 mmHg 22%
    12:00 +28°C° 0 mm 5 mps 732 mmHg 20%
    13:00 +29°C° 0 mm 6 mps 731 mmHg 19%
    14:00 +28°C° 0 mm 5 mps 731 mmHg 20%
    15:00 +28°C° 0 mm 5 mps 731 mmHg 20%
    16:00 +28°C° 0 mm 5 mps 732 mmHg 21%
    17:00 +26°C° 0 mm 6 mps 732 mmHg 27%
    18:00 +23°C° 0 mm 7 mps 733 mmHg 33%
    19:00 +21°C° 0 mm 8 mps 734 mmHg 38%
    20:00 +20°C° 0 mm 8 mps 734 mmHg 41%
    21:00 +18°C° 0 mm 7 mps 735 mmHg 44%
    22:00 +17°C° 0 mm 6 mps 735 mmHg 47%
    23:00 +16°C° 0 mm 6 mps 736 mmHg 51%

    Tomorrow, 29 March, Sunday

    Time Temperature Precipitation Wind Pressure Humidity
    00:00 +15°C° 0 mm 6 mps 736 mmHg 55%
    01:00 +14°C° 0 mm 5 mps 736 mmHg 59%
    02:00 +13°C° 0 mm 5 mps 736 mmHg 62%
    03:00 +12°C° 0 mm 4 mps 736 mmHg 65%
    04:00 +12°C° 0 mm 3 mps 736 mmHg 68%
    05:00 +13°C° 0 mm 2 mps 736 mmHg 67%
    06:00 +13°C° 0 mm 2 mps 737 mmHg 66%
    07:00 +14°C° 0 mm 2 mps 737 mmHg 65%
    08:00 +16°C° 0 mm 2 mps 737 mmHg 59%
    09:00 +18°C° 0 mm 2 mps 737 mmHg 53%
    10:00 +19°C° 0 mm 3 mps 737 mmHg 47%
    11:00 +21°C° 0 mm 3 mps 737 mmHg 42%
    12:00 +22°C° 0 mm 4 mps 736 mmHg 37%
    13:00 +25°C° 0 mm 4 mps 736 mmHg 33%
    14:00 +25°C° 0 mm 5 mps 735 mmHg 33%
    15:00 +25°C° 0 mm 5 mps 735 mmHg 33%
    16:00 +24°C° 0 mm 6 mps 734 mmHg 34%
    17:00 +22°C° 0 mm 5 mps 735 mmHg 37%
    18:00 +21°C° 0 mm 5 mps 735 mmHg 41%
    19:00 +19°C° 0 mm 4 mps 735 mmHg 44%
    20:00 +18°C° 0 mm 4 mps 735 mmHg 46%
    21:00 +18°C° 0 mm 4 mps 735 mmHg 48%
    22:00 +17°C° 0 mm 3 mps 735 mmHg 50%
    23:00 +17°C° 0 mm 3 mps 735 mmHg 53%

    Day after tomorrow, 30 March, Monday

    Time Temperature Precipitation Wind Pressure Humidity
    00:00 +17°C° 0 mm 3 mps 735 mmHg 57%
    01:00 +17°C° 0 mm 4 mps 735 mmHg 60%
    02:00 +17°C° 0 mm 3 mps 735 mmHg 62%
    03:00 +17°C° 0 mm 3 mps 735 mmHg 65%
    04:00 +17°C° 0 mm 3 mps 735 mmHg 67%
    05:00 +17°C° 0 mm 4 mps 735 mmHg 66%
    06:00 +16°C° 0 mm 5 mps 735 mmHg 66%
    07:00 +16°C° 0 mm 6 mps 736 mmHg 65%
    08:00 +16°C° 0 mm 6 mps 736 mmHg 65%
    09:00 +17°C° 0 mm 6 mps 736 mmHg 64%
    10:00 +17°C° 0 mm 6 mps 736 mmHg 63%
    11:00 +19°C° 0 mm 6 mps 737 mmHg 58%
    12:00 +21°C° 0 mm 7 mps 737 mmHg 52%
    13:00 +22°C° 0 mm 7 mps 737 mmHg 47%
    14:00 +22°C° 0 mm 7 mps 737 mmHg 45%
    15:00 +23°C° 0 mm 6 mps 736 mmHg 43%
    16:00 +23°C° 0 mm 6 mps 736 mmHg 40%
    17:00 +21°C° 0 mm 5 mps 737 mmHg 44%
    18:00 +20°C° 0 mm 4 mps 737 mmHg 49%
    19:00 +19°C° 0 mm 4 mps 737 mmHg 53%
    20:00 +18°C° 0 mm 3 mps 737 mmHg 61%
    21:00 +17°C° 0 mm 3 mps 737 mmHg 68%
    22:00 +16°C° 0 mm 3 mps 737 mmHg 76%
    23:00 +16°C° 0 mm 3 mps 737 mmHg 77%

    31 March, Tuesday

    Time Temperature Precipitation Wind Pressure Humidity
    00:00 +14°C° 0 mm 3 mps 737 mmHg 77%
    01:00 +14°C° 0 mm 3 mps 736 mmHg 77%
    02:00 +14°C° 0 mm 4 mps 736 mmHg 77%
    03:00 +13°C° 0 mm 4 mps 736 mmHg 77%
    04:00 +13°C° 0 mm 4 mps 736 mmHg 76%
    05:00 +14°C° 0 mm 5 mps 736 mmHg 79%
    06:00 +14°C° 0 mm 5 mps 736 mmHg 82%
    07:00 +14°C° 0 mm 6 mps 736 mmHg 85%
    08:00 +15°C° 0 mm 6 mps 736 mmHg 83%
    09:00 +16°C° 0 mm 6 mps 736 mmHg 80%
    10:00 +16°C° 0 mm 6 mps 735 mmHg 77%
    11:00 +16°C° 0.7 mm 5 mps 735 mmHg 79%
    12:00 +16°C° 0.7 mm 5 mps 735 mmHg 81%
    13:00 +17°C° 0.7 mm 4 mps 734 mmHg 83%
    14:00 +17°C° 0.2 mm 4 mps 734 mmHg 83%
    15:00 +18°C° 0.2 mm 4 mps 734 mmHg 83%
    16:00 +18°C° 0.2 mm 4 mps 733 mmHg 83%
    17:00 +18°C° 0 mm 4 mps 733 mmHg 85%
    18:00 +17°C° 0 mm 4 mps 734 mmHg 86%
    19:00 +17°C° 0 mm 4 mps 734 mmHg 88%
    20:00 +17°C° 0.4 mm 3 mps 734 mmHg 88%
    21:00 +17°C° 0.4 mm 3 mps 734 mmHg 89%
    22:00 +17°C° 0.4 mm 2 mps 734 mmHg 90%
    23:00 +17°C° 0.3 mm 2 mps 734 mmHg 90%

    1 April, Wednesday

    Time Temperature Precipitation Wind Pressure Humidity
    00:00 +17°C° 0.3 mm 2 mps 734 mmHg 90%
    01:00 +17°C° 0.3 mm 2 mps 733 mmHg 90%
    02:00 +17°C° 0.1 mm 2 mps 733 mmHg 89%
    03:00 +18°C° 0.1 mm 1 mps 733 mmHg 88%
    04:00 +18°C° 0.1 mm 1 mps 733 mmHg 87%
    05:00 +19°C° 0 mm 1 mps 734 mmHg 85%
    06:00 +18°C° 0 mm 2 mps 734 mmHg 83%
    07:00 +18°C° 0 mm 3 mps 734 mmHg 81%
    08:00 +19°C° 0 mm 4 mps 735 mmHg 70%
    09:00 +21°C° 0 mm 4 mps 735 mmHg 59%
    10:00 +22°C° 0 mm 5 mps 735 mmHg 48%
    11:00 +23°C° 0 mm 6 mps 735 mmHg 38%
    12:00 +24°C° 0 mm 7 mps 735 mmHg 28%
    13:00 +27°C° 0 mm 7 mps 735 mmHg 19%
    14:00 +27°C° 0 mm 7 mps 735 mmHg 17%
    15:00 +27°C° 0 mm 7 mps 735 mmHg 15%
    16:00 +27°C° 0 mm 7 mps 735 mmHg 13%
    17:00 +24°C° 0 mm 6 mps 735 mmHg 18%
    18:00 +22°C° 0 mm 5 mps 736 mmHg 24%
    19:00 +20°C° 0 mm 4 mps 736 mmHg 29%
    20:00 +20°C° 0 mm 4 mps 737 mmHg 30%
    21:00 +19°C° 0 mm 4 mps 738 mmHg 31%
    22:00 +19°C° 0 mm 4 mps 739 mmHg 33%
    23:00 +18°C° 0 mm 3 mps 739 mmHg 33%

    2 April, Thursday

    Time Temperature Precipitation Wind Pressure Humidity
    00:00 +17°C° 0 mm 3 mps 739 mmHg 34%
    01:00 +16°C° 0 mm 2 mps 739 mmHg 35%
    02:00 +15°C° 0 mm 2 mps 739 mmHg 36%
    03:00 +14°C° 0 mm 2 mps 740 mmHg 37%
    04:00 +14°C° 0 mm 1 mps 740 mmHg 38%
    05:00 +15°C° 0 mm 2 mps 740 mmHg 36%
    06:00 +15°C° 0 mm 2 mps 740 mmHg 33%
    07:00 +16°C° 0 mm 3 mps 741 mmHg 31%
    08:00 +18°C° 0 mm 3 mps 741 mmHg 28%
    09:00 +19°C° 0 mm 3 mps 741 mmHg 25%
    10:00 +21°C° 0 mm 2 mps 741 mmHg 22%
    11:00 +23°C° 0 mm 2 mps 741 mmHg 20%
    12:00 +23°C° 0 mm 1 mps 740 mmHg 19%
    13:00 +24°C° 0 mm 1 mps 740 mmHg 17%
    14:00 +24°C° 0 mm 1 mps 739 mmHg 17%
    15:00 +24°C° 0 mm 1 mps 739 mmHg 16%
    16:00 +25°C° 0 mm 1 mps 738 mmHg 16%
    17:00 +23°C° 0 mm 1 mps 738 mmHg 18%
    18:00 +21°C° 0 mm 1 mps 738 mmHg 20%
    19:00 +19°C° 0 mm 2 mps 738 mmHg 23%
    20:00 +18°C° 0 mm 2 mps 738 mmHg 23%
    21:00 +18°C° 0 mm 2 mps 738 mmHg 24%
    22:00 +17°C° 0 mm 2 mps 738 mmHg 25%
    23:00 +17°C° 0 mm 2 mps 738 mmHg 26%
    Show more